Darstellungsparameter: Aktuell verwendete Einstellungen:
Skalierung der Graphiken ... ?
xyx+y,   Skalierungsfaktor:      Skalierung: Modus: x, Faktor: 1
Darstellungszeitraum ... ?
Vom - - bis: - -   Zeitraum: 27.02.2021 - 27.02.2021
Min/Max/Avg-Anzeige ... ?
Zeige MMA aktuell
Zeige MMA Monat
Zeige MMA alles
Zeige --A aktuell
Zeige --A Monat
Zeige --A alles
Keine MMA-Anzeige
MMA:
Average (ber die Originaldaten)
MMA-Basis: 27.02.2021 - 27.02.2021
Quicknavigation für Darstellung... ?
Tage:      1T, 2T, 3T, 5T -1T -2T -3T -5T +1T +2T +3T +5T
Wochen: 1W, 2W, 3W -1W -2W -3W +1W +2W +3W
Monate: 1M, 3M, 6M -1M -3M -6M +1M +3M +6M
Jahre:    1J, 3J, 5J, 10J -1J -3J -5J -10J +1J +3J +5J +10J
Nutze für die Darstellung ... ?
Originaldaten oder Mittelwerte auf ...
Stundenbasis Tagesbasis Wochenbasis
Monatsbasis Jahresbasis      Datenbasis: Original-Daten
Darstellen als:
Statistik (Auto) Statistik J:M      Darstellung:

Der gewünschte Datumsbereich war nicht gültig/verfügbar und wurde korrigiert....
Das angegebene Enddatum (15.05.2023 23:59:59) liegt in der Zukunft.
Das angegebene Startdatum (16.02.2023 00:00:00) liegt in der Zukunft.


Zur Graphik,    zurück zur Übersicht aller Sensoren.
 
Tabellarische Datenbersicht: ?
 
Sensor: Nr:Datum:Temp:Abs-Feuchte:Windchill:Wind:
Aussen-T/F 1 27-02-2021 01:00:00 1.7 C 5.12 g/m*3 1.7 C 0 km/h
2 27-02-2021 01:05:00 1.6 C 5.08 g/m*3 1.6 C 0 km/h
3 27-02-2021 01:10:00 1.6 C 5.08 g/m*3 1.6 C 1.6 km/h
4 27-02-2021 01:15:00 1.5 C 5.05 g/m*3 1.5 C 0 km/h
5 27-02-2021 01:20:00 1.4 C 5.01 g/m*3 1.4 C 0 km/h
6 27-02-2021 01:25:00 1.4 C 5.01 g/m*3 1.4 C 0 km/h
7 27-02-2021 01:30:00 1.3 C 4.98 g/m*3 1.3 C 0 km/h
8 27-02-2021 01:35:00 1.3 C 4.98 g/m*3 1.3 C 0 km/h
9 27-02-2021 01:40:00 1.3 C 4.98 g/m*3 1.3 C 0 km/h
10 27-02-2021 01:45:00 1.2 C 4.95 g/m*3 1.2 C 0 km/h
11 27-02-2021 01:50:00 1.2 C 4.95 g/m*3 1.2 C 0 km/h
12 27-02-2021 01:55:00 1.1 C 4.91 g/m*3 1.1 C 0 km/h
13 27-02-2021 02:00:00 1.1 C 4.91 g/m*3 1.1 C 0 km/h
14 27-02-2021 02:05:00 1 C 4.88 g/m*3 1 C 0 km/h
15 27-02-2021 02:10:00 0.9 C 4.85 g/m*3 0.9 C 0 km/h
16 27-02-2021 02:15:00 0.9 C 4.85 g/m*3 0.9 C 1.6 km/h
17 27-02-2021 02:20:00 0.9 C 4.85 g/m*3 0.9 C 0 km/h
18 27-02-2021 02:25:00 0.9 C 4.85 g/m*3 0.9 C 0 km/h
19 27-02-2021 02:30:00 0.9 C 4.85 g/m*3 0.9 C 0 km/h
20 27-02-2021 02:35:00 0.8 C 4.81 g/m*3 0.8 C 0 km/h
21 27-02-2021 02:40:00 0.8 C 4.81 g/m*3 0.8 C 0 km/h
22 27-02-2021 02:45:00 0.7 C 4.78 g/m*3 0.7 C 0 km/h
23 27-02-2021 02:50:00 0.7 C 4.78 g/m*3 0.7 C 0 km/h
24 27-02-2021 02:55:00 0.7 C 4.78 g/m*3 0.7 C 0 km/h
25 27-02-2021 03:00:00 0.7 C 4.83 g/m*3 0.7 C 0 km/h
Sensor: Nr:Datum:Temp:Abs-Feuchte:Windchill:Wind:
Aussen-T/F 26 27-02-2021 03:05:00 0.7 C 4.83 g/m*3 0.7 C 0 km/h
27 27-02-2021 03:10:00 0.7 C 4.83 g/m*3 0.7 C 0 km/h
28 27-02-2021 03:15:00 0.6 C 4.8 g/m*3 0.6 C 0 km/h
29 27-02-2021 03:20:00 0.6 C 4.75 g/m*3 0.6 C 0 km/h
30 27-02-2021 03:25:00 0.5 C 4.71 g/m*3 0.5 C 0 km/h
31 27-02-2021 03:30:00 0.4 C 4.68 g/m*3 0.4 C 0 km/h
32 27-02-2021 03:35:00 0.3 C 4.65 g/m*3 0.3 C 0 km/h
33 27-02-2021 03:40:00 0.3 C 4.7 g/m*3 0.3 C 0 km/h
34 27-02-2021 03:45:00 0.3 C 4.7 g/m*3 0.3 C 0 km/h
35 27-02-2021 03:50:00 0.3 C 4.7 g/m*3 0.3 C 0 km/h
36 27-02-2021 03:55:00 0.2 C 4.67 g/m*3 0.2 C 0 km/h
37 27-02-2021 04:00:00 0.2 C 4.67 g/m*3 0.2 C 0 km/h
38 27-02-2021 04:05:00 0.2 C 4.67 g/m*3 0.2 C 0 km/h
39 27-02-2021 04:10:00 0.1 C 4.63 g/m*3 0.1 C 1.6 km/h
40 27-02-2021 04:15:00 0.1 C 4.63 g/m*3 0.1 C 0 km/h
41 27-02-2021 04:20:00 0.1 C 4.63 g/m*3 0.1 C 0 km/h
42 27-02-2021 04:25:00 0.1 C 4.63 g/m*3 0.1 C 0 km/h
43 27-02-2021 04:30:00 0.1 C 4.63 g/m*3 0.1 C 0 km/h
44 27-02-2021 04:35:00 0 C 4.6 g/m*3 0 C 0 km/h
45 27-02-2021 04:40:00 -0.1 C 4.57 g/m*3 -0.1 C 0 km/h
46 27-02-2021 04:45:00 -0.1 C 4.57 g/m*3 -0.1 C 0 km/h
47 27-02-2021 04:50:00 -0.1 C 4.57 g/m*3 -0.1 C 0 km/h
48 27-02-2021 04:55:00 -0.1 C 4.57 g/m*3 -0.1 C 0 km/h
49 27-02-2021 05:00:00 0 C 4.6 g/m*3 0 C 0 km/h
50 27-02-2021 05:05:00 -0.1 C 4.57 g/m*3 -0.1 C 0 km/h
Sensor: Nr:Datum:Temp:Abs-Feuchte:Windchill:Wind:
Aussen-T/F 51 27-02-2021 05:10:00 -0.1 C 4.57 g/m*3 -0.1 C 0 km/h
52 27-02-2021 05:15:00 -0.1 C 4.57 g/m*3 -0.1 C 0 km/h
53 27-02-2021 05:20:00 -0.1 C 4.57 g/m*3 -0.1 C 0 km/h
54 27-02-2021 05:25:00 -0.2 C 4.54 g/m*3 -0.2 C 0 km/h
55 27-02-2021 05:30:00 -0.2 C 4.54 g/m*3 -0.2 C 0 km/h
56 27-02-2021 05:35:00 -0.2 C 4.54 g/m*3 -0.2 C 0 km/h
57 27-02-2021 05:40:00 -0.2 C 4.54 g/m*3 -0.2 C 0 km/h
58 27-02-2021 05:45:00 -0.3 C 4.51 g/m*3 -0.3 C 0 km/h
59 27-02-2021 05:50:00 -0.3 C 4.51 g/m*3 -0.3 C 0 km/h
60 27-02-2021 05:55:00 -0.3 C 4.51 g/m*3 -0.3 C 0 km/h
61 27-02-2021 06:00:00 -0.3 C 4.51 g/m*3 -0.3 C 0 km/h
62 27-02-2021 06:05:00 -0.3 C 4.51 g/m*3 -0.3 C 0 km/h
63 27-02-2021 06:10:00 -0.3 C 4.51 g/m*3 -0.3 C 0 km/h
64 27-02-2021 06:15:00 -0.3 C 4.51 g/m*3 -0.3 C 0 km/h
65 27-02-2021 06:20:00 -0.3 C 4.51 g/m*3 -0.3 C 0 km/h
66 27-02-2021 06:25:00 -0.4 C 4.48 g/m*3 -0.4 C 0 km/h
67 27-02-2021 06:30:00 -0.4 C 4.48 g/m*3 -0.4 C 0 km/h
68 27-02-2021 06:35:00 -0.4 C 4.48 g/m*3 -0.4 C 0 km/h
69 27-02-2021 06:40:00 -0.5 C 4.45 g/m*3 -0.5 C 0 km/h
70 27-02-2021 06:45:00 -0.5 C 4.45 g/m*3 -0.5 C 0 km/h
71 27-02-2021 06:50:00 -0.6 C 4.42 g/m*3 -0.6 C 0 km/h
72 27-02-2021 06:55:00 -0.6 C 4.42 g/m*3 -0.6 C 0 km/h
73 27-02-2021 07:00:00 -0.6 C 4.42 g/m*3 -0.6 C 0 km/h
74 27-02-2021 07:05:00 -0.6 C 4.42 g/m*3 -0.6 C 0 km/h
75 27-02-2021 07:10:00 -0.6 C 4.42 g/m*3 -0.6 C 0 km/h
Sensor: Nr:Datum:Temp:Abs-Feuchte:Windchill:Wind:
Aussen-T/F 76 27-02-2021 07:15:00 -0.5 C 4.45 g/m*3 -0.5 C 0 km/h
77 27-02-2021 07:20:00 -0.4 C 4.48 g/m*3 -0.4 C 0 km/h
78 27-02-2021 07:25:00 -0.3 C 4.56 g/m*3 -0.3 C 0 km/h
79 27-02-2021 07:30:00 -0.2 C 4.59 g/m*3 -0.2 C 0 km/h
80 27-02-2021 07:35:00 -0.1 C 4.62 g/m*3 -0.1 C 0 km/h
81 27-02-2021 07:40:00 0 C 4.65 g/m*3 0 C 0 km/h
82 27-02-2021 07:45:00 0.2 C 4.72 g/m*3 0.2 C 3.2 km/h
83 27-02-2021 07:50:00 0.3 C 4.75 g/m*3 0.3 C 0 km/h
84 27-02-2021 07:55:00 0.5 C 4.81 g/m*3 0.5 C 0 km/h
85 27-02-2021 08:00:00 0.7 C 4.88 g/m*3 0.7 C 0 km/h
86 27-02-2021 08:05:00 0.7 C 4.88 g/m*3 0.7 C 0 km/h
87 27-02-2021 08:10:00 0.8 C 4.91 g/m*3 0.8 C 0 km/h
88 27-02-2021 08:15:00 0.9 C 4.95 g/m*3 0.9 C 0 km/h
89 27-02-2021 08:20:00 1 C 4.98 g/m*3 1 C 1.6 km/h
90 27-02-2021 08:25:00 1.2 C 5.05 g/m*3 1.2 C 1.6 km/h
91 27-02-2021 08:30:00 1.3 C 5.09 g/m*3 1.3 C 0 km/h
92 27-02-2021 08:35:00 1.4 C 5.12 g/m*3 1.4 C 0 km/h
93 27-02-2021 08:40:00 1.6 C 5.25 g/m*3 1.6 C 0 km/h
94 27-02-2021 08:45:00 1.7 C 5.23 g/m*3 1.7 C 1.6 km/h
95 27-02-2021 08:50:00 1.8 C 5.32 g/m*3 1.8 C 0 km/h
96 27-02-2021 08:55:00 1.9 C 5.35 g/m*3 1.9 C 0 km/h
97 27-02-2021 09:00:00 2 C 5.33 g/m*3 2 C 0 km/h
98 27-02-2021 09:05:00 2.1 C 5.37 g/m*3 2.1 C 0 km/h
99 27-02-2021 09:10:00 2.2 C 5.46 g/m*3 2.2 C 1.6 km/h
100 27-02-2021 09:15:00 2.2 C 5.46 g/m*3 2.2 C 3.2 km/h
Sensor: Nr:Datum:Temp:Abs-Feuchte:Windchill:Wind:
Aussen-T/F 101 27-02-2021 09:20:00 2.3 C 5.44 g/m*3 2.3 C 0 km/h
102 27-02-2021 09:25:00 2.3 C 5.44 g/m*3 2.3 C 0 km/h
103 27-02-2021 09:30:00 2.3 C 5.44 g/m*3 2.3 C 0 km/h
104 27-02-2021 09:35:00 2.4 C 5.54 g/m*3 2.4 C 0 km/h
105 27-02-2021 09:40:00 2.5 C 5.52 g/m*3 2.5 C 0 km/h
106 27-02-2021 09:45:00 2.6 C 5.56 g/m*3 2.6 C 0 km/h
107 27-02-2021 09:50:00 2.7 C 5.59 g/m*3 2.7 C 0 km/h
108 27-02-2021 09:55:00 2.7 C 5.65 g/m*3 2.7 C 1.6 km/h
109 27-02-2021 10:00:00 2.8 C 5.63 g/m*3 2.8 C 0 km/h
110 27-02-2021 10:05:00 2.8 C 5.63 g/m*3 2.8 C 0 km/h
111 27-02-2021 10:10:00 2.8 C 5.63 g/m*3 2.8 C 0 km/h
112 27-02-2021 10:15:00 2.8 C 5.63 g/m*3 2.8 C 0 km/h
113 27-02-2021 10:20:00 2.9 C 5.67 g/m*3 2.9 C 0 km/h
114 27-02-2021 10:25:00 3 C 5.71 g/m*3 3 C 1.6 km/h
115 27-02-2021 10:30:00 3.1 C 5.75 g/m*3 3.1 C 0 km/h
116 27-02-2021 10:35:00 3.1 C 5.75 g/m*3 3.1 C 1.6 km/h
117 27-02-2021 10:40:00 3.2 C 5.79 g/m*3 3.2 C 0 km/h
118 27-02-2021 10:45:00 3.4 C 5.86 g/m*3 3.4 C 1.6 km/h
119 27-02-2021 10:50:00 3.6 C 5.94 g/m*3 3.6 C 3.2 km/h
120 27-02-2021 10:55:00 3.7 C 5.98 g/m*3 3.7 C 0 km/h
121 27-02-2021 11:00:00 3.8 C 6.02 g/m*3 3.8 C 0 km/h
122 27-02-2021 11:05:00 3.9 C 6.06 g/m*3 3.9 C 3.2 km/h
123 27-02-2021 11:10:00 4 C 6.1 g/m*3 4 C 3.2 km/h
124 27-02-2021 11:15:00 4 C 6.1 g/m*3 4 C 4.8 km/h
125 27-02-2021 11:20:00 4.1 C 6.14 g/m*3 4.1 C 0 km/h
Sensor: Nr:Datum:Temp:Abs-Feuchte:Windchill:Wind:
Aussen-T/F 126 27-02-2021 11:25:00 4.3 C 6.23 g/m*3 4.3 C 1.6 km/h
127 27-02-2021 11:30:00 4.4 C 6.27 g/m*3 4.4 C 4.8 km/h
128 27-02-2021 11:35:00 4.4 C 6.14 g/m*3 4.4 C 3.2 km/h
129 27-02-2021 11:40:00 4.6 C 6.22 g/m*3 4.6 C 0 km/h
130 27-02-2021 11:45:00 4.7 C 6.26 g/m*3 4.7 C 0 km/h
131 27-02-2021 11:50:00 4.8 C 6.24 g/m*3 4.8 C 0 km/h
132 27-02-2021 11:55:00 4.8 C 6.24 g/m*3 4.8 C 0 km/h
133 27-02-2021 12:00:00 4.9 C 6.28 g/m*3 4.9 C 1.6 km/h
134 27-02-2021 12:05:00 5.1 C 6.36 g/m*3 5.1 C 1.6 km/h
135 27-02-2021 12:10:00 5.2 C 6.33 g/m*3 5.2 C 0 km/h
136 27-02-2021 12:15:00 5.4 C 6.35 g/m*3 5.4 C 3.2 km/h
137 27-02-2021 12:20:00 5.7 C 6.48 g/m*3 5.7 C 1.6 km/h
138 27-02-2021 12:25:00 5.9 C 6.49 g/m*3 5.9 C 0 km/h
139 27-02-2021 12:30:00 6.2 C 6.55 g/m*3 6.2 C 1.6 km/h
140 27-02-2021 12:35:00 6.6 C 6.72 g/m*3 6.6 C 3.2 km/h
141 27-02-2021 12:40:00 6.8 C 6.65 g/m*3 6.8 C 1.6 km/h
142 27-02-2021 12:45:00 7.1 C 6.71 g/m*3 7.1 C 1.6 km/h
143 27-02-2021 12:50:00 7.3 C 6.72 g/m*3 7.3 C 4.8 km/h
144 27-02-2021 12:55:00 7.6 C 6.77 g/m*3 7.6 C 1.6 km/h
145 27-02-2021 13:00:00 7.7 C 6.73 g/m*3 6.71 C 6.4 km/h
146 27-02-2021 13:05:00 7.9 C 6.65 g/m*3 6.94 C 6.4 km/h
147 27-02-2021 13:10:00 7.9 C 6.41 g/m*3 6.52 C 8.1 km/h
148 27-02-2021 13:15:00 8.1 C 6.57 g/m*3 7.17 C 6.4 km/h
149 27-02-2021 13:20:00 8.3 C 6.66 g/m*3 7.41 C 6.4 km/h
150 27-02-2021 13:25:00 8.4 C 6.45 g/m*3 5.8 C 16.1 km/h
Sensor: Nr:Datum:Temp:Abs-Feuchte:Windchill:Wind:
Aussen-T/F 151 27-02-2021 13:30:00 8.3 C 6.41 g/m*3 6.66 C 9.7 km/h
152 27-02-2021 13:35:00 8.3 C 6.57 g/m*3 8.3 C 4.8 km/h

Legende:
   Min
   Max


Maximal/Minimal-Werte vom 27.02.2021 - 27.02.2021

Sensor Min Max Avg
Temp
(Aussen-T/F)
-0.6 °C
27-02-2021  06:50:00
8.4 °C
27-02-2021  13:25:00
1.94 °C
Abs-Feuchte
(Aussen-T/F)
4.42 g/m*3
27-02-2021  06:50:00
6.77 g/m*3
27-02-2021  12:55:00
5.19 g/m*3
Windchill
(Aussen-T/F)
-0.6 C
27-02-2021  06:50:00
8.3 C
27-02-2021  13:35:00
1.86 C

Die Daten stammen von einer Davis Vantage Pro 2 Wetter-Station und werden unter Linux mit der Software wview2wettercgi und aufbereitet. Alle Angaben erfolgen ohne Gewähr für ihre Vollständigkeit oder Richtigkeit.
Kontakt: Rainer Krienke krienke@uni-koblenz.de . Meine Webseiten an der Uni Koblenz oder privat.
Version: $Revision: 0.78 $